Time,TemperatureF,DewpointF,PressureIn,WindDirection,WindDirectionDegrees,WindSpeedMPH,WindSpeedGustMPH,Humidity,HourlyPrecipIn,Conditions,Clouds,dailyrainin,SoftwareType,DateUTC
2013-02-23 00:01:00,25.0,22.0,29.80,West,261,0.0,1.0,87,0.00,,,0.03,,2013-02-23 06:01:00,
2013-02-23 00:11:00,25.0,22.0,29.80,West,261,0.0,1.0,87,0.00,,,0.03,,2013-02-23 06:11:00,
2013-02-23 00:22:00,25.0,22.0,29.79,West,261,0.0,2.0,87,0.00,,,0.03,,2013-02-23 06:22:00,
2013-02-23 00:31:00,25.0,22.0,29.79,West,261,0.0,1.0,87,0.00,,,0.03,,2013-02-23 06:31:00,
2013-02-23 00:41:00,25.0,22.0,29.79,West,261,0.0,1.0,87,0.00,,,0.03,,2013-02-23 06:41:00,
2013-02-23 00:52:00,24.0,21.0,29.78,West,261,0.0,0.0,87,0.00,,,0.03,,2013-02-23 06:52:00,
2013-02-23 01:01:00,24.0,21.0,29.78,WSW,258,0.0,0.0,87,0.00,,,0.03,,2013-02-23 07:01:00,
2013-02-23 01:11:00,24.0,21.0,29.78,WSW,258,0.0,0.0,87,0.00,,,0.03,,2013-02-23 07:11:00,
2013-02-23 01:21:00,24.0,21.0,29.78,WSW,258,0.0,0.0,87,0.00,,,0.03,,2013-02-23 07:21:00,
2013-02-23 01:31:00,24.0,21.0,29.79,WSW,258,0.0,0.0,87,0.00,,,0.03,,2013-02-23 07:31:00,
2013-02-23 01:41:00,24.0,21.0,29.79,WSW,258,0.0,0.0,87,0.00,,,0.03,,2013-02-23 07:41:00,
2013-02-23 01:52:00,24.0,21.0,29.79,WSW,258,0.0,0.0,87,0.00,,,0.03,,2013-02-23 07:52:00,
2013-02-23 02:01:00,24.0,21.0,29.79,WSW,258,0.0,2.0,87,0.00,,,0.03,,2013-02-23 08:01:00,
2013-02-23 02:11:00,24.0,21.0,29.79,WSW,258,0.0,2.0,87,0.00,,,0.03,,2013-02-23 08:11:00,
2013-02-23 02:21:00,24.0,21.0,29.79,WSW,258,0.0,1.0,87,0.00,,,0.03,,2013-02-23 08:21:00,
2013-02-23 02:31:00,24.0,21.0,29.79,WSW,258,0.0,1.0,87,0.00,,,0.03,,2013-02-23 08:31:00,
2013-02-23 02:41:00,24.0,21.0,29.79,WSW,258,0.0,1.0,87,0.00,,,0.03,,2013-02-23 08:41:00,
2013-02-23 02:52:00,24.0,21.0,29.78,WSW,240,1.0,3.0,87,0.00,,,0.03,,2013-02-23 08:52:00,
2013-02-23 03:01:00,24.0,21.0,29.78,WSW,237,0.0,1.0,87,0.00,,,0.03,,2013-02-23 09:01:00,
2013-02-23 03:11:00,24.0,21.0,29.78,WSW,237,0.0,1.0,87,0.00,,,0.03,,2013-02-23 09:11:00,
2013-02-23 03:21:00,24.0,21.0,29.78,WSW,239,0.0,2.0,87,0.00,,,0.03,,2013-02-23 09:21:00,
2013-02-23 03:31:00,24.0,21.0,29.78,WSW,241,0.0,0.0,87,0.00,,,0.03,,2013-02-23 09:31:00,
2013-02-23 03:41:00,24.0,21.0,29.78,WSW,241,0.0,0.0,87,0.00,,,0.03,,2013-02-23 09:41:00,
2013-02-23 03:52:00,24.0,21.0,29.78,WSW,252,0.0,0.0,87,0.00,,,0.03,,2013-02-23 09:52:00,
2013-02-23 04:01:00,24.0,21.0,29.78,West,260,1.0,3.0,87,0.00,,,0.03,,2013-02-23 10:01:00,
2013-02-23 04:11:00,24.0,21.0,29.78,WSW,249,0.0,2.0,87,0.00,,,0.03,,2013-02-23 10:11:00,
2013-02-23 04:21:00,24.0,21.0,29.78,WSW,249,0.0,2.0,87,0.00,,,0.03,,2013-02-23 10:21:00,
2013-02-23 04:31:00,23.0,19.0,29.78,WSW,237,0.0,3.0,86,0.00,,,0.03,,2013-02-23 10:31:00,
2013-02-23 04:41:00,23.0,19.0,29.78,WSW,237,0.0,3.0,86,0.00,,,0.03,,2013-02-23 10:41:00,
2013-02-23 04:52:00,23.0,19.0,29.78,West,261,0.0,1.0,86,0.00,,,0.03,,2013-02-23 10:52:00,
2013-02-23 05:02:00,23.0,19.0,29.78,West,265,0.0,3.0,86,0.00,,,0.03,,2013-02-23 11:02:00,
2013-02-23 05:11:00,23.0,19.0,29.78,West,265,0.0,3.0,86,0.00,,,0.03,,2013-02-23 11:11:00,
2013-02-23 05:21:00,23.0,19.0,29.78,WSW,238,0.0,3.0,86,0.00,,,0.03,,2013-02-23 11:21:00,
2013-02-23 05:32:00,23.0,19.0,29.78,WSW,257,0.0,1.0,86,0.00,,,0.03,,2013-02-23 11:32:00,
2013-02-23 05:41:00,23.0,19.0,29.78,WSW,257,0.0,1.0,86,0.00,,,0.03,,2013-02-23 11:41:00,
2013-02-23 05:52:00,23.0,19.0,29.78,WSW,253,1.0,3.0,86,0.00,,,0.03,,2013-02-23 11:52:00,
2013-02-23 06:01:00,23.0,19.0,29.79,WSW,253,0.0,2.0,86,0.00,,,0.03,,2013-02-23 12:01:00,
2013-02-23 06:11:00,23.0,19.0,29.79,WSW,253,0.0,2.0,86,0.00,,,0.03,,2013-02-23 12:11:00,
2013-02-23 06:21:00,22.0,18.0,29.79,WSW,254,1.0,3.0,86,0.00,,,0.03,,2013-02-23 12:21:00,
2013-02-23 06:32:00,22.0,18.0,29.79,West,263,1.0,3.0,86,0.00,,,0.03,,2013-02-23 12:32:00,
2013-02-23 06:42:00,22.0,18.0,29.79,West,263,1.0,3.0,86,0.00,,,0.03,,2013-02-23 12:42:00,
2013-02-23 06:52:00,22.0,18.0,29.79,West,265,0.0,2.0,86,0.00,,,0.03,,2013-02-23 12:52:00,
2013-02-23 07:01:00,22.0,19.0,29.79,WSW,248,0.0,3.0,87,0.00,,,0.03,,2013-02-23 13:01:00,
2013-02-23 07:11:00,22.0,19.0,29.80,WSW,252,1.0,3.0,87,0.00,,,0.03,,2013-02-23 13:11:00,
2013-02-23 07:22:00,22.0,19.0,29.80,WSW,252,1.0,3.0,87,0.00,,,0.03,,2013-02-23 13:22:00,
2013-02-23 07:32:00,22.0,19.0,29.80,WSW,257,0.0,2.0,87,0.00,,,0.03,,2013-02-23 13:32:00,
2013-02-23 07:42:00,22.0,19.0,29.80,WSW,244,0.0,2.0,87,0.00,,,0.03,,2013-02-23 13:42:00,
2013-02-23 07:52:00,22.0,19.0,29.80,WSW,244,0.0,2.0,87,0.00,,,0.03,,2013-02-23 13:52:00,
2013-02-23 08:02:00,22.0,19.0,29.80,West,273,1.0,3.0,87,0.00,,,0.03,,2013-02-23 14:02:00,
2013-02-23 08:11:00,22.0,19.0,29.80,West,273,1.0,3.0,87,0.00,,,0.03,,2013-02-23 14:11:00,
2013-02-23 08:21:00,22.0,18.0,29.80,WSW,254,0.0,2.0,86,0.00,,,0.03,,2013-02-23 14:21:00,
2013-02-23 08:32:00,22.0,18.0,29.80,WSW,250,0.0,1.0,86,0.00,,,0.03,,2013-02-23 14:32:00,
2013-02-23 08:42:00,22.0,18.0,29.80,WSW,250,0.0,1.0,86,0.00,,,0.03,,2013-02-23 14:42:00,
2013-02-23 08:52:00,22.0,18.0,29.80,West,271,0.0,2.0,86,0.00,,,0.03,,2013-02-23 14:52:00,
2013-02-23 09:01:00,22.0,18.0,29.80,WSW,251,0.0,2.0,86,0.00,,,0.03,,2013-02-23 15:01:00,
2013-02-23 09:11:00,22.0,18.0,29.80,WSW,251,0.0,2.0,86,0.00,,,0.03,,2013-02-23 15:11:00,
2013-02-23 09:21:00,22.0,18.0,29.80,WSW,253,0.0,3.0,86,0.00,,,0.03,,2013-02-23 15:21:00,
2013-02-23 09:32:00,22.0,18.0,29.81,West,261,0.0,2.0,86,0.00,,,0.03,,2013-02-23 15:32:00,
2013-02-23 09:41:00,22.0,18.0,29.81,West,261,0.0,2.0,86,0.00,,,0.03,,2013-02-23 15:41:00,
2013-02-23 09:52:00,23.0,19.0,29.81,West,261,1.0,5.0,85,0.00,,,0.03,,2013-02-23 15:52:00,
2013-02-23 10:01:00,23.0,19.0,29.81,WSW,254,1.0,3.0,85,0.00,,,0.03,,2013-02-23 16:01:00,
2013-02-23 10:11:00,23.0,19.0,29.81,WSW,254,1.0,3.0,85,0.00,,,0.03,,2013-02-23 16:11:00,
2013-02-23 10:21:00,23.0,19.0,29.81,WSW,250,0.0,1.0,85,0.00,,,0.03,,2013-02-23 16:21:00,
2013-02-23 10:31:00,23.0,19.0,29.81,WSW,242,0.0,3.0,84,0.00,,,0.03,,2013-02-23 16:31:00,
2013-02-23 10:42:00,23.0,19.0,29.81,WSW,242,0.0,3.0,84,0.00,,,0.03,,2013-02-23 16:42:00,
2013-02-23 10:52:00,23.0,19.0,29.81,WSW,245,1.0,3.0,84,0.00,,,0.03,,2013-02-23 16:52:00,
2013-02-23 11:01:00,24.0,20.0,29.81,WSW,248,1.0,3.0,83,0.00,,,0.03,,2013-02-23 17:01:00,
2013-02-23 11:11:00,25.0,20.0,29.81,SW,232,1.0,5.0,82,0.00,,,0.03,,2013-02-23 17:11:00,
2013-02-23 11:21:00,25.0,20.0,29.81,SW,232,1.0,5.0,82,0.00,,,0.03,,2013-02-23 17:21:00,
2013-02-23 11:32:00,26.0,21.0,29.81,WSW,251,0.0,3.0,82,0.00,,,0.03,,2013-02-23 17:32:00,
2013-02-23 11:41:00,26.0,21.0,29.81,WSW,251,0.0,3.0,82,0.00,,,0.03,,2013-02-23 17:41:00,
2013-02-23 11:52:00,26.0,21.0,29.81,WSW,247,0.0,3.0,81,0.00,,,0.03,,2013-02-23 17:52:00,
2013-02-23 12:01:00,26.0,21.0,29.81,WSW,254,1.0,3.0,82,0.00,,,0.03,,2013-02-23 18:01:00,
2013-02-23 12:12:00,26.0,21.0,29.81,WSW,254,1.0,3.0,82,0.00,,,0.03,,2013-02-23 18:12:00,
2013-02-23 12:21:00,26.0,21.0,29.81,WSW,252,1.0,3.0,81,0.00,,,0.03,,2013-02-23 18:21:00,
2013-02-23 12:31:00,27.0,22.0,29.80,West,271,1.0,3.0,81,0.00,,,0.03,,2013-02-23 18:31:00,
2013-02-23 12:41:00,27.0,22.0,29.80,West,271,1.0,3.0,81,0.00,,,0.03,,2013-02-23 18:41:00,
2013-02-23 12:52:00,27.0,22.0,29.80,WNW,282,0.0,3.0,81,0.00,,,0.03,,2013-02-23 18:52:00,
2013-02-23 13:01:00,27.0,22.0,29.80,SW,225,1.0,3.0,80,0.00,,,0.03,,2013-02-23 19:01:00,
2013-02-23 13:11:00,28.0,22.0,29.80,West,273,1.0,2.0,79,0.00,,,0.03,,2013-02-23 19:11:00,
2013-02-23 13:21:00,28.0,22.0,29.80,West,273,1.0,2.0,79,0.00,,,0.03,,2013-02-23 19:21:00,
2013-02-23 13:32:00,28.0,22.0,29.80,WSW,243,0.0,3.0,79,0.00,,,0.03,,2013-02-23 19:32:00,
2013-02-23 13:41:00,28.0,22.0,29.80,WSW,243,0.0,3.0,79,0.00,,,0.03,,2013-02-23 19:41:00,
2013-02-23 13:52:00,28.0,22.0,29.80,SW,230,1.0,3.0,78,0.00,,,0.03,,2013-02-23 19:52:00,
2013-02-23 14:01:00,29.0,23.0,29.80,West,263,0.0,2.0,78,0.00,,,0.03,,2013-02-23 20:01:00,
2013-02-23 14:11:00,29.0,23.0,29.80,West,263,0.0,2.0,78,0.00,,,0.03,,2013-02-23 20:11:00,
2013-02-23 14:21:00,29.0,23.0,29.80,West,271,0.0,1.0,78,0.00,,,0.03,,2013-02-23 20:21:00,
2013-02-23 14:32:00,30.0,23.0,29.80,WNW,297,0.0,3.0,76,0.00,,,0.03,,2013-02-23 20:32:00,
2013-02-23 14:41:00,30.0,23.0,29.80,WNW,297,0.0,3.0,76,0.00,,,0.03,,2013-02-23 20:41:00,
2013-02-23 14:52:00,30.0,23.0,29.80,West,264,1.0,3.0,76,0.00,,,0.03,,2013-02-23 20:52:00,
2013-02-23 15:01:00,30.0,23.0,29.80,West,281,1.0,2.0,76,0.00,,,0.03,,2013-02-23 21:01:00,
2013-02-23 15:11:00,30.0,23.0,29.80,West,271,1.0,3.0,76,0.00,,,0.03,,2013-02-23 21:11:00,
2013-02-23 15:22:00,30.0,23.0,29.80,West,271,1.0,3.0,76,0.00,,,0.03,,2013-02-23 21:22:00,
2013-02-23 15:31:00,29.0,22.0,29.80,West,270,0.0,2.0,76,0.00,,,0.02,,2013-02-23 21:31:00,
2013-02-23 15:41:00,29.0,22.0,29.80,West,270,0.0,2.0,76,0.00,,,0.02,,2013-02-23 21:41:00,
2013-02-23 15:52:00,29.0,22.0,29.80,West,270,0.0,2.0,76,0.00,,,0.02,,2013-02-23 21:52:00,
2013-02-23 16:01:00,29.0,23.0,29.80,West,263,0.0,3.0,77,0.00,,,0.01,,2013-02-23 22:01:00,
2013-02-23 16:11:00,29.0,23.0,29.80,West,259,0.0,1.0,78,0.00,,,0.00,,2013-02-23 22:11:00,
2013-02-23 16:22:00,29.0,23.0,29.80,West,259,0.0,1.0,78,0.00,,,0.00,,2013-02-23 22:22:00,
2013-02-23 16:31:00,29.0,23.0,29.80,West,262,0.0,1.0,79,0.00,,,0.00,,2013-02-23 22:31:00,
2013-02-23 16:41:00,29.0,23.0,29.80,West,262,0.0,1.0,79,0.00,,,0.00,,2013-02-23 22:41:00,
2013-02-23 16:52:00,29.0,23.0,29.81,West,268,0.0,0.0,78,0.00,,,0.00,,2013-02-23 22:52:00,
2013-02-23 17:01:00,29.0,23.0,29.81,SW,229,0.0,3.0,78,0.00,,,0.00,,2013-02-23 23:01:00,
2013-02-23 17:11:00,29.0,23.0,29.82,WSW,244,0.0,0.0,77,0.00,,,0.00,,2013-02-23 23:11:00,
2013-02-23 17:21:00,29.0,23.0,29.82,WSW,244,0.0,0.0,77,0.00,,,0.00,,2013-02-23 23:21:00,
2013-02-23 17:31:00,29.0,23.0,29.82,WSW,255,0.0,1.0,78,0.00,,,0.00,,2013-02-23 23:31:00,
2013-02-23 17:41:00,29.0,23.0,29.82,WSW,255,0.0,1.0,78,0.00,,,0.00,,2013-02-23 23:41:00,
2013-02-23 17:52:00,29.0,23.0,29.83,WSW,255,0.0,0.0,78,0.00,,,0.00,,2013-02-23 23:52:00,
2013-02-23 18:01:00,29.0,23.0,29.83,WSW,255,0.0,0.0,79,0.00,,,0.00,,2013-02-24 00:01:00,
2013-02-23 18:11:00,29.0,23.0,29.83,WSW,255,0.0,0.0,79,0.00,,,0.00,,2013-02-24 00:11:00,
2013-02-23 18:22:00,28.0,23.0,29.83,WNW,286,0.0,1.0,80,0.00,,,0.00,,2013-02-24 00:22:00,
2013-02-23 18:32:00,28.0,23.0,29.84,West,269,0.0,3.0,80,0.00,,,0.00,,2013-02-24 00:32:00,
2013-02-23 18:42:00,28.0,23.0,29.84,West,269,0.0,3.0,80,0.00,,,0.00,,2013-02-24 00:42:00,
2013-02-23 18:52:00,27.0,22.0,29.83,West,276,0.0,2.0,81,0.00,,,0.00,,2013-02-24 00:52:00,
2013-02-23 19:01:00,27.0,22.0,29.84,West,280,0.0,1.0,81,0.00,,,0.00,,2013-02-24 01:01:00,
2013-02-23 19:11:00,27.0,22.0,29.84,West,280,0.0,1.0,81,0.00,,,0.00,,2013-02-24 01:11:00,
2013-02-23 19:22:00,27.0,22.0,29.85,WSW,256,0.0,2.0,81,0.00,,,0.00,,2013-02-24 01:22:00,
2013-02-23 19:31:00,27.0,22.0,29.85,WSW,257,1.0,3.0,81,0.00,,,0.00,,2013-02-24 01:31:00,
2013-02-23 19:41:00,27.0,22.0,29.85,WSW,257,1.0,3.0,81,0.00,,,0.00,,2013-02-24 01:41:00,
2013-02-23 19:52:00,27.0,22.0,29.85,WSW,257,0.0,3.0,82,0.00,,,0.00,,2013-02-24 01:52:00,
2013-02-23 20:01:00,27.0,22.0,29.86,WSW,257,0.0,2.0,82,0.00,,,0.00,,2013-02-24 02:01:00,
2013-02-23 20:11:00,27.0,22.0,29.86,WSW,257,0.0,2.0,82,0.00,,,0.00,,2013-02-24 02:11:00,
2013-02-23 20:21:00,27.0,22.0,29.86,West,273,0.0,3.0,82,0.00,,,0.00,,2013-02-24 02:21:00,
2013-02-23 20:32:00,27.0,22.0,29.86,West,273,0.0,3.0,82,0.00,,,0.00,,2013-02-24 02:32:00,
2013-02-23 20:41:00,27.0,22.0,29.86,West,273,0.0,3.0,82,0.00,,,0.00,,2013-02-24 02:41:00,
2013-02-23 20:52:00,26.0,21.0,29.87,West,267,1.0,3.0,81,0.00,,,0.00,,2013-02-24 02:52:00,
2013-02-23 21:01:00,26.0,21.0,29.87,WSW,253,0.0,3.0,82,0.00,,,0.00,,2013-02-24 03:01:00,
2013-02-23 21:11:00,26.0,21.0,29.87,West,259,0.0,0.0,82,0.00,,,0.00,,2013-02-24 03:11:00,
2013-02-23 21:21:00,26.0,21.0,29.87,West,259,0.0,0.0,82,0.00,,,0.00,,2013-02-24 03:21:00,
2013-02-23 21:31:00,26.0,21.0,29.87,West,267,0.0,0.0,82,0.00,,,0.00,,2013-02-24 03:31:00,
2013-02-23 21:42:00,26.0,21.0,29.87,West,267,0.0,0.0,82,0.00,,,0.00,,2013-02-24 03:42:00,
2013-02-23 21:52:00,26.0,21.0,29.88,West,267,0.0,0.0,82,0.00,,,0.00,,2013-02-24 03:52:00,
2013-02-23 22:01:00,26.0,21.0,29.88,West,267,0.0,2.0,82,0.00,,,0.00,,2013-02-24 04:01:00,
2013-02-23 22:11:00,26.0,21.0,29.88,West,267,0.0,2.0,82,0.00,,,0.00,,2013-02-24 04:11:00,
2013-02-23 22:21:00,25.0,21.0,29.88,West,267,0.0,0.0,83,0.00,,,0.00,,2013-02-24 04:21:00,
2013-02-23 22:31:00,25.0,21.0,29.89,West,267,0.0,0.0,83,0.00,,,0.00,,2013-02-24 04:31:00,
2013-02-23 22:41:00,25.0,21.0,29.89,West,267,0.0,0.0,83,0.00,,,0.00,,2013-02-24 04:41:00,
2013-02-23 22:52:00,25.0,21.0,29.89,WSW,247,0.0,2.0,83,0.00,,,0.00,,2013-02-24 04:52:00,
2013-02-23 23:01:00,25.0,21.0,29.89,WSW,244,1.0,3.0,83,0.00,,,0.00,,2013-02-24 05:01:00,
2013-02-23 23:11:00,25.0,21.0,29.89,WSW,244,1.0,3.0,83,0.00,,,0.00,,2013-02-24 05:11:00,
2013-02-23 23:22:00,25.0,21.0,29.89,WSW,246,0.0,1.0,83,0.00,,,0.00,,2013-02-24 05:22:00,
2013-02-23 23:32:00,25.0,21.0,29.90,WSW,246,0.0,0.0,84,0.00,,,0.00,,2013-02-24 05:32:00,
2013-02-23 23:42:00,25.0,21.0,29.90,WSW,246,0.0,0.0,84,0.00,,,0.00,,2013-02-24 05:42:00,
2013-02-23 23:52:00,25.0,21.0,29.90,West,266,0.0,2.0,84,0.00,,,0.00,,2013-02-24 05:52:00,